THOR ABLESTAR DEB, 541

Orbit data source: Space-Track

THOR ABLESTAR DEB, 541 is space debris in LEO originally from a launch on Thu, 29 Jun 1961 UTC launched from the Air Force Eastern Test Range (AFETR). Debris objects in space refer to the collection of defunct objects orbiting the Earth. Examples of debris include non-operational satellites, rocket bodies, and fragments generated from explosions, collisions, or faulty payload assembly.

Loading next visibility...
Identifier
541, 1961-015GA
Orbit
LEO
Country
Flag of USUS
Related business
Manufacturer
Unknown
Mission
Spacecraft
Bus & Motor
Unknown
Mass
Unknown
Launch date (UTC)
1961-06-29 (64 years ago)
Launch vehicle
Unknown
Launch site
Air Force Eastern Test Range (AFETR)
Object type
Payload
Rocket body
Debris
Shape & HBR
Unknown shape, 0.1 m
Radar Cross Section
Small (<0.1 m²)

Expand to show TLE details & history
Last TLE update: 1 day ago

TLE from 1 day ago
0 THOR ABLESTAR DEB
1 00541U 61015GA  25349.42682229  .00000254  00000-0  27652-3 0  9997
2 00541  67.2177 121.3327 0072021  54.7409 306.0381 13.86273226246858
Epoch: 2025-12-15T10:14Z
TLE epoch observation values (Epoch: 2025-12-15T10:14:37.445Z)
Latitude
-0.00008°
Longitude
-116.6489°
Altitude
913.054 km
Speed
7.411 km/s
True Right ascension
08h 05m 19s
True Declination
0° 00' 00"
Sunlit
Object was in full shadow at epoch
Visualization orbit readout
Latitude
Unknown
Longitude
Unknown
Altitude
Unknown
Speed
Unknown
Apparent Right ascension
Unknown
Apparent Declination
Unknown
Sunlit
N/A
Visualization observer readout
Local Sidereal Time
12:36:23
Azimuth
Unknown
Elevation
Unknown
Doppler factor
Unknown
Orbital elements
Apogee altitude
992.776 km
Perigee altitude
887.363 km
Semi-major axis
7,318.207 km
Eccentricity
0.0072
Inclination
67.2177°
RAAN
121.3327°
Arg. of periapsis
54.7409°
True anomaly
305.3672°
Mean anomaly
306.0381°
Eccentric anomaly
305.70301°
Mean motion
3.46686 °/min
Orbital period
103.84 mins
BSTAR
0.00027652
Loading maneuver chart data...
Computing Atmospheric mass density...

Documentation

Showing up to 5 results
|